| time (UTC) | temp C | wind direction | speed KPH | gust KPH | rain 1hr cm | rain 24hr cm | rain mn cm | humidity % | barometer mb |
| 20260508091945 | 18 | 133 | 0.0 | 1.6 | 0.00 | 0.00 | 0.00 | 70 | 1012.0 |
| 20260508091442 | 18 | 160 | 0.0 | 1.6 | 0.00 | 0.00 | 0.00 | 72 | 1012.0 |
| 20260508085445 | 18 | 160 | 0.0 | 4.8 | 0.00 | 0.00 | 0.00 | 70 | 1011.9 |
| 20260508084444 | 18 | 137 | 1.6 | 6.4 | 0.00 | 0.00 | 0.00 | 70 | 1011.8 |
| 20260508083947 | 18 | 129 | 0.0 | 6.4 | 0.00 | 0.00 | 0.00 | 70 | 1011.8 |
| 20260508083443 | 18 | 121 | 3.2 | 4.8 | 0.00 | 0.00 | 0.00 | 70 | 1011.8 |
| 20260508082948 | 18 | 129 | 0.0 | 3.2 | 0.00 | 0.00 | 0.00 | 69 | 1011.6 |
| 20260508082446 | 18 | 173 | 0.0 | 3.2 | 0.00 | 0.00 | 0.00 | 71 | 1011.9 |
| 20260508081946 | 18 | 140 | 0.0 | 0.0 | 0.00 | 0.00 | 0.00 | 66 | 1011.6 |
| 20260508080949 | 18 | 132 | 0.0 | 4.8 | 0.00 | 0.00 | 0.00 | 66 | 1011.7 |
| 20260508075410 | 18 | 311 | 0.0 | 1.6 | 0.00 | 0.00 | 0.00 | 67 | 1011.5 |
| 20260508074857 | 17 | 311 | 0.0 | 0.0 | 0.00 | 0.00 | 0.00 | 68 | 1011.5 |
| 20260508074358 | 17 | 312 | 0.0 | 0.0 | 0.00 | 0.00 | 0.00 | 68 | 1011.5 |
| 20260508073357 | 17 | 344 | 0.0 | 0.0 | 0.00 | 0.00 | 0.00 | 72 | 1011.8 |
| 20260508072858 | 16 | 344 | 0.0 | 0.0 | 0.00 | 0.00 | 0.00 | 77 | 1011.4 |
| 20260508071357 | 16 | 344 | 0.0 | 1.6 | 0.00 | 0.00 | 0.00 | 76 | 1011.4 |
| 20260508070857 | 15 | 344 | 0.0 | 1.6 | 0.00 | 0.00 | 0.00 | 79 | 1011.7 |
| 20260508070356 | 14 | 337 | 0.0 | 0.0 | 0.00 | 0.00 | 0.00 | 79 | 1011.7 |
| 20260508065859 | 14 | 338 | 0.0 | 0.0 | 0.00 | 0.00 | 0.00 | 80 | 1011.6 |
| 20260508065356 | 13 | 338 | 0.0 | 0.0 | 0.00 | 0.00 | 0.00 | 85 | 1011.6 |
| 20260508064858 | 13 | 338 | 0.0 | 0.0 | 0.00 | 0.00 | 0.00 | 85 | 1011.5 |
| 20260508064357 | 12 | 338 | 0.0 | 1.6 | 0.00 | 0.00 | 0.00 | 86 | 1011.7 |
| 20260508063855 | 12 | 338 | 0.0 | 1.6 | 0.00 | 0.00 | 0.00 | 87 | 1011.7 |
| 20260508063356 | 12 | 337 | 0.0 | 3.2 | 0.00 | 0.00 | 0.00 | 85 | 1011.8 |
| 20260508062858 | 12 | 337 | 0.0 | 3.2 | 0.00 | 0.00 | 0.00 | 86 | 1011.8 |
| 20260508062358 | 11 | 337 | 1.6 | 1.6 | 0.00 | 0.00 | 0.00 | 87 | 1011.8 |
| 20260508061854 | 11 | 338 | 0.0 | 0.0 | 0.00 | 0.00 | 0.00 | 88 | 1011.8 |
| 20260508061356 | 11 | 338 | 0.0 | 0.0 | 0.00 | 0.00 | 0.00 | 88 | 1011.7 |
| 20260508060855 | 11 | 337 | 0.0 | 0.0 | 0.00 | 0.00 | 0.00 | 88 | 1011.7 |
| 20260508055857 | 11 | 338 | 0.0 | 0.0 | 0.00 | 0.00 | 0.00 | 89 | 1011.7 |
| 20260508055356 | 10 | 337 | 0.0 | 1.6 | 0.00 | 0.00 | 0.00 | 89 | 1011.8 |
| 20260508054856 | 10 | 337 | 0.0 | 1.6 | 0.00 | 0.00 | 0.00 | 89 | 1011.7 |
| 20260508054358 | 10 | 337 | 0.0 | 0.0 | 0.00 | 0.00 | 0.00 | 90 | 1011.7 |
| 20260508053856 | 10 | 337 | 0.0 | 3.2 | 0.00 | 0.00 | 0.00 | 92 | 1011.6 |
| 20260508053357 | 9 | 338 | 0.0 | 3.2 | 0.00 | 0.00 | 0.00 | 93 | 1011.6 |
| 20260508052859 | 9 | 339 | 0.0 | 0.0 | 0.00 | 0.00 | 0.00 | 93 | 1011.4 |
| 20260508052356 | 9 | 339 | 0.0 | 0.0 | 0.00 | 0.00 | 0.00 | 93 | 1011.6 |
| 20260508051855 | 8 | 339 | 0.0 | 1.6 | 0.00 | 0.00 | 0.00 | 94 | 1011.6 |
| 20260508050854 | 8 | 340 | 0.0 | 1.6 | 0.00 | 0.00 | 0.00 | 94 | 1011.7 |
| 20260508050357 | 8 | 340 | 0.0 | 0.0 | 0.00 | 0.00 | 0.00 | 94 | 1011.5 |
| 20260508045856 | 8 | 339 | 0.0 | 0.0 | 0.00 | 0.00 | 0.00 | 94 | 1011.3 |
| 20260508045354 | 8 | 340 | 0.0 | 0.0 | 0.00 | 0.00 | 0.00 | 94 | 1011.6 |
| 20260508044857 | 8 | 339 | 0.0 | 0.0 | 0.00 | 0.00 | 0.00 | 94 | 1011.4 |
| 20260508044358 | 8 | 340 | 0.0 | 0.0 | 0.00 | 0.00 | 0.00 | 94 | 1011.3 |
| 20260508043856 | 8 | 340 | 0.0 | 0.0 | 0.00 | 0.00 | 0.00 | 94 | 1011.4 |
| 20260508043355 | 8 | 340 | 0.0 | 0.0 | 0.00 | 0.00 | 0.00 | 94 | 1011.4 |
| 20260508042355 | 8 | 343 | 0.0 | 0.0 | 0.00 | 0.00 | 0.00 | 94 | 1011.1 |
| 20260508041855 | 8 | 343 | 0.0 | 0.0 | 0.00 | 0.00 | 0.00 | 94 | 1011.1 |
| 20260508041344 | 8 | 343 | 0.0 | 3.2 | 0.00 | 0.00 | 0.00 | 94 | 1011.2 |
| 20260508040842 | 8 | 343 | 0.0 | 3.2 | 0.00 | 0.00 | 0.00 | 94 | 1011.0 |
| 20260508040349 | 8 | 11 | 1.6 | 3.2 | 0.00 | 0.00 | 0.00 | 94 | 1011.2 |
| 20260508035844 | 8 | 17 | 1.6 | 3.2 | 0.00 | 0.00 | 0.00 | 94 | 1011.0 |
| 20260508034847 | 8 | 38 | 0.0 | 0.0 | 0.00 | 0.00 | 0.00 | 94 | 1011.1 |
| 20260508034345 | 8 | 38 | 0.0 | 0.0 | 0.00 | 0.00 | 0.00 | 94 | 1011.0 |
| 20260508033844 | 8 | 39 | 0.0 | 0.0 | 0.00 | 0.00 | 0.00 | 94 | 1011.0 |
| 20260508032843 | 8 | 39 | 0.0 | 0.0 | 0.00 | 0.00 | 0.00 | 94 | 1011.1 |
| 20260508032344 | 8 | 37 | 0.0 | 0.0 | 0.00 | 0.00 | 0.00 | 94 | 1011.0 |
| 20260508030845 | 8 | 37 | 0.0 | 0.0 | 0.00 | 0.00 | 0.00 | 94 | 1010.9 |
| 20260508030347 | 8 | 38 | 0.0 | 0.0 | 0.00 | 0.00 | 0.00 | 93 | 1011.0 |
| 20260508025831 | 7 | 38 | 0.0 | 0.0 | 0.00 | 0.00 | 0.00 | 93 | 1011.1 |
| 20260508025332 | 8 | 38 | 0.0 | 0.0 | 0.00 | 0.00 | 0.00 | 93 | 1011.1 |
| 20260508024832 | 8 | 39 | 0.0 | 0.0 | 0.00 | 0.00 | 0.00 | 93 | 1011.1 |
| 20260508024324 | 8 | 39 | 0.0 | 0.0 | 0.00 | 0.00 | 0.00 | 93 | 1011.2 |
| 20260508023820 | 8 | 38 | 0.0 | 0.0 | 0.00 | 0.00 | 0.00 | 93 | 1011.2 |
| 20260508023319 | 8 | 38 | 0.0 | 0.0 | 0.00 | 0.00 | 0.00 | 93 | 1011.3 |
| 20260508022309 | 8 | 38 | 0.0 | 0.0 | 0.00 | 0.00 | 0.00 | 93 | 1011.3 |
| 20260508021757 | 8 | 38 | 0.0 | 1.6 | 0.00 | 0.00 | 0.00 | 93 | 1011.4 |
| 20260508021257 | 8 | 40 | 0.0 | 1.6 | 0.00 | 0.00 | 0.00 | 94 | 1011.1 |
| 20260508020759 | 8 | 40 | 0.0 | 0.0 | 0.00 | 0.00 | 0.00 | 94 | 1011.4 |
| 20260508020257 | 8 | 40 | 0.0 | 1.6 | 0.00 | 0.00 | 0.00 | 93 | 1011.4 |
| 20260508015756 | 8 | 40 | 0.0 | 1.6 | 0.00 | 0.00 | 0.00 | 94 | 1011.2 |
| 20260508015258 | 8 | 42 | 0.0 | 0.0 | 0.00 | 0.00 | 0.00 | 94 | 1011.6 |
| 20260508014756 | 8 | 69 | 0.0 | 0.0 | 0.00 | 0.00 | 0.00 | 94 | 1011.7 |
| 20260508014255 | 8 | 72 | 0.0 | 0.0 | 0.00 | 0.00 | 0.00 | 93 | 1011.5 |
| 20260508013744 | 8 | 69 | 0.0 | 0.0 | 0.00 | 0.00 | 0.00 | 94 | 1011.5 |
| 20260508013246 | 8 | 81 | 0.0 | 0.0 | 0.00 | 0.00 | 0.00 | 93 | 1011.8 |
| 20260508012745 | 8 | 81 | 0.0 | 1.6 | 0.00 | 0.00 | 0.00 | 93 | 1011.7 |
| 20260508012243 | 8 | 81 | 0.0 | 1.6 | 0.00 | 0.00 | 0.00 | 93 | 1011.8 |
| 20260508011745 | 8 | 28 | 0.0 | 1.6 | 0.00 | 0.00 | 0.00 | 93 | 1011.6 |
| 20260508011245 | 8 | 41 | 0.0 | 0.0 | 0.00 | 0.00 | 0.00 | 93 | 1011.5 |
| 20260508010722 | 8 | 41 | 0.0 | 0.0 | 0.00 | 0.00 | 0.00 | 93 | 1011.8 |
| 20260508010220 | 8 | 41 | 0.0 | 0.0 | 0.00 | 0.00 | 0.00 | 93 | 1011.7 |
| 20260508005720 | 8 | 41 | 0.0 | 0.0 | 0.00 | 0.00 | 0.00 | 93 | 1011.8 |
| 20260508005207 | 8 | 41 | 0.0 | 0.0 | 0.00 | 0.00 | 0.00 | 93 | 1011.9 |
| 20260508004709 | 8 | 41 | 0.0 | 0.0 | 0.00 | 0.00 | 0.00 | 93 | 1012.0 |
| 20260508004208 | 8 | 41 | 0.0 | 0.0 | 0.00 | 0.00 | 0.00 | 93 | 1012.0 |
| 20260508003657 | 8 | 41 | 0.0 | 0.0 | 0.00 | 0.00 | 0.00 | 92 | 1012.1 |
| 20260508003158 | 8 | 41 | 0.0 | 0.0 | 0.00 | 0.00 | 0.00 | 92 | 1012.1 |
| 20260508002656 | 8 | 41 | 0.0 | 0.0 | 0.00 | 0.00 | 0.00 | 92 | 1012.2 |
| 20260508001657 | 8 | 41 | 0.0 | 1.6 | 0.00 | 0.00 | 0.00 | 92 | 1012.4 |
| 20260508001155 | 8 | 40 | 0.0 | 1.6 | 0.00 | 0.00 | 0.00 | 92 | 1012.3 |
| 20260508000656 | 8 | 50 | 0.0 | 1.6 | 0.00 | 0.00 | 0.00 | 92 | 1012.3 |
| 20260507235148 | 9 | 49 | 0.0 | 1.6 | 0.00 | 0.00 | 0.00 | 92 | 1012.4 |
| 20260507234642 | 8 | 91 | 0.0 | 1.6 | 0.00 | 0.00 | 0.00 | 91 | 1012.5 |
| 20260507234144 | 9 | 90 | 0.0 | 1.6 | 0.00 | 0.00 | 0.00 | 91 | 1012.7 |
| 20260507233144 | 9 | 8 | 1.6 | 1.6 | 0.00 | 0.00 | 0.00 | 91 | 1012.6 |
| 20260507232644 | 9 | 9 | 0.0 | 0.0 | 0.00 | 0.00 | 0.00 | 90 | 1012.8 |
| 20260507232147 | 9 | 9 | 0.0 | 0.0 | 0.00 | 0.00 | 0.00 | 90 | 1012.9 |
| 20260507231645 | 9 | 8 | 0.0 | 0.0 | 0.00 | 0.00 | 0.00 | 90 | 1013.0 |
| 20260507231143 | 9 | 10 | 0.0 | 3.2 | 0.00 | 0.00 | 0.00 | 90 | 1012.9 |
| 20260507230646 | 10 | 9 | 0.0 | 3.2 | 0.00 | 0.00 | 0.00 | 91 | 1012.8 |
| 20260507230146 | 10 | 20 | 0.0 | 0.0 | 0.00 | 0.00 | 0.00 | 90 | 1013.0 |
| 20260507225644 | 10 | 20 | 0.0 | 0.0 | 0.00 | 0.00 | 0.00 | 90 | 1013.0 |
| 20260507224644 | 10 | 20 | 0.0 | 0.0 | 0.00 | 0.00 | 0.00 | 90 | 1013.0 |
| 20260507224145 | 10 | 20 | 0.0 | 0.0 | 0.00 | 0.00 | 0.00 | 90 | 1012.9 |
| 20260507223648 | 10 | 20 | 0.0 | 0.0 | 0.00 | 0.00 | 0.00 | 89 | 1012.9 |
| 20260507223143 | 10 | 20 | 0.0 | 0.0 | 0.00 | 0.00 | 0.00 | 89 | 1012.7 |
| 20260507222146 | 10 | 17 | 0.0 | 1.6 | 0.00 | 0.00 | 0.00 | 89 | 1012.7 |
| 20260507221643 | 10 | 18 | 0.0 | 1.6 | 0.00 | 0.00 | 0.00 | 89 | 1012.8 |
| 20260507221142 | 10 | 8 | 0.0 | 1.6 | 0.00 | 0.00 | 0.00 | 89 | 1012.4 |
| 20260507220646 | 10 | 9 | 0.0 | 1.6 | 0.00 | 0.00 | 0.00 | 88 | 1012.8 |
| 20260507220143 | 10 | 3 | 0.0 | 3.2 | 0.00 | 0.00 | 0.00 | 87 | 1012.6 |
| 20260507215643 | 10 | 2 | 0.0 | 3.2 | 0.00 | 0.00 | 0.00 | 88 | 1012.7 |
| 20260507215146 | 10 | 25 | 0.0 | 0.0 | 0.00 | 0.00 | 0.00 | 87 | 1012.7 |
| 20260507214643 | 10 | 25 | 0.0 | 0.0 | 0.00 | 0.00 | 0.00 | 87 | 1012.2 |
| 20260507214142 | 10 | 24 | 0.0 | 0.0 | 0.00 | 0.00 | 0.00 | 87 | 1012.5 |
| 20260507213646 | 10 | 25 | 0.0 | 1.6 | 0.00 | 0.00 | 0.00 | 87 | 1012.6 |
| 20260507213121 | 10 | 14 | 0.0 | 1.6 | 0.00 | 0.00 | 0.00 | 87 | 1012.3 |
| 20260507212618 | 11 | 12 | 0.0 | 0.0 | 0.00 | 0.00 | 0.00 | 86 | 1012.4 |
| 20260507212119 | 11 | 10 | 0.0 | 0.0 | 0.00 | 0.00 | 0.00 | 86 | 1012.4 |
| 20260507211607 | 11 | 10 | 0.0 | 0.0 | 0.00 | 0.00 | 0.00 | 85 | 1012.5 |
| 20260507211107 | 11 | 6 | 0.0 | 1.6 | 0.00 | 0.00 | 0.00 | 83 | 1012.4 |
| 20260507210555 | 11 | 5 | 0.0 | 1.6 | 0.00 | 0.00 | 0.00 | 85 | 1012.6 |
| 20260507210057 | 11 | 11 | 0.0 | 0.0 | 0.00 | 0.00 | 0.00 | 84 | 1012.7 |
| 20260507205557 | 11 | 5 | 0.0 | 0.0 | 0.00 | 0.00 | 0.00 | 84 | 1012.6 |
| 20260507205054 | 11 | 7 | 0.0 | 0.0 | 0.00 | 0.00 | 0.00 | 83 | 1012.8 |
| 20260507204556 | 12 | 6 | 0.0 | 0.0 | 0.00 | 0.00 | 0.00 | 83 | 1012.4 |
| 20260507204059 | 12 | 7 | 0.0 | 0.0 | 0.00 | 0.00 | 0.00 | 81 | 1012.4 |
| 20260507203556 | 12 | 7 | 0.0 | 0.0 | 0.00 | 0.00 | 0.00 | 81 | 1012.2 |
| 20260507203056 | 12 | 7 | 0.0 | 0.0 | 0.00 | 0.00 | 0.00 | 80 | 1012.5 |
| 20260507202558 | 12 | 7 | 0.0 | 0.0 | 0.00 | 0.00 | 0.00 | 80 | 1012.3 |
| 20260507202058 | 12 | 7 | 0.0 | 1.6 | 0.00 | 0.00 | 0.00 | 79 | 1012.4 |
| 20260507201556 | 13 | 7 | 0.0 | 1.6 | 0.00 | 0.00 | 0.00 | 78 | 1012.5 |
| 20260507201059 | 13 | 339 | 0.0 | 0.0 | 0.00 | 0.00 | 0.00 | 77 | 1012.4 |
| 20260507200557 | 13 | 339 | 0.0 | 3.2 | 0.00 | 0.00 | 0.00 | 75 | 1012.3 |
| 20260507200056 | 13 | 332 | 0.0 | 3.2 | 0.00 | 0.00 | 0.00 | 75 | 1012.6 |
| 20260507195558 | 13 | 342 | 0.0 | 1.6 | 0.00 | 0.00 | 0.00 | 76 | 1012.9 |
| 20260507195054 | 13 | 339 | 0.0 | 1.6 | 0.00 | 0.00 | 0.00 | 77 | 1012.5 |
| 20260507194554 | 13 | 334 | 0.0 | 1.6 | 0.00 | 0.00 | 0.00 | 77 | 1012.5 |
| 20260507194056 | 13 | 347 | 0.0 | 1.6 | 0.00 | 0.00 | 0.00 | 77 | 1012.5 |
| 20260507193555 | 13 | 54 | 0.0 | 1.6 | 0.00 | 0.00 | 0.00 | 76 | 1012.5 |
| 20260507193055 | 13 | 32 | 0.0 | 0.0 | 0.00 | 0.00 | 0.00 | 77 | 1012.6 |
| 20260507192543 | 14 | 38 | 0.0 | 1.6 | 0.00 | 0.00 | 0.00 | 76 | 1012.4 |
| 20260507192044 | 14 | 37 | 0.0 | 0.0 | 0.00 | 0.00 | 0.00 | 76 | 1012.6 |
| 20260507190542 | 15 | 314 | 0.0 | 3.2 | 0.00 | 0.00 | 0.00 | 75 | 1012.6 |
| 20260507190046 | 15 | 339 | 1.6 | 3.2 | 0.00 | 0.00 | 0.00 | 75 | 1012.3 |
| 20260507185544 | 15 | 347 | 0.0 | 3.2 | 0.00 | 0.00 | 0.00 | 74 | 1012.3 |
| 20260507185045 | 15 | 356 | 0.0 | 1.6 | 0.00 | 0.00 | 0.00 | 74 | 1012.2 |
| 20260507184546 | 16 | 324 | 0.0 | 1.6 | 0.00 | 0.00 | 0.00 | 72 | 1012.2 |
| 20260507184045 | 16 | 330 | 0.0 | 1.6 | 0.00 | 0.00 | 0.00 | 70 | 1012.2 |
| 20260507183045 | 17 | 320 | 0.0 | 3.2 | 0.00 | 0.00 | 0.00 | 67 | 1011.9 |
| 20260507182543 | 17 | 307 | 0.0 | 3.2 | 0.00 | 0.00 | 0.00 | 64 | 1012.1 |
| 20260507182043 | 18 | 313 | 0.0 | 4.8 | 0.00 | 0.00 | 0.00 | 63 | 1011.9 |
| 20260507181547 | 18 | 315 | 3.2 | 4.8 | 0.00 | 0.00 | 0.00 | 59 | 1012.0 |
| 20260507181044 | 18 | 314 | 0.0 | 3.2 | 0.00 | 0.00 | 0.00 | 60 | 1011.8 |
| 20260507180046 | 18 | 314 | 1.6 | 4.8 | 0.00 | 0.00 | 0.00 | 57 | 1011.9 |
| 20260507175543 | 19 | 314 | 1.6 | 4.8 | 0.00 | 0.00 | 0.00 | 59 | 1011.7 |
| 20260507175043 | 19 | 314 | 1.6 | 4.8 | 0.00 | 0.00 | 0.00 | 59 | 1011.6 |
| 20260507174545 | 19 | 316 | 1.6 | 4.8 | 0.00 | 0.00 | 0.00 | 58 | 1011.6 |
| 20260507174043 | 19 | 312 | 1.6 | 3.2 | 0.00 | 0.00 | 0.00 | 57 | 1011.5 |
| 20260507173543 | 20 | 312 | 1.6 | 3.2 | 0.00 | 0.00 | 0.00 | 57 | 1011.4 |
| 20260507173044 | 20 | 311 | 0.0 | 3.2 | 0.00 | 0.00 | 0.00 | 54 | 1011.4 |
| 20260507172543 | 20 | 311 | 0.0 | 3.2 | 0.00 | 0.00 | 0.00 | 52 | 1011.2 |
| 20260507171545 | 20 | 311 | 1.6 | 4.8 | 0.00 | 0.00 | 0.00 | 52 | 1011.3 |
| 20260507171043 | 20 | 311 | 1.6 | 4.8 | 0.00 | 0.00 | 0.00 | 52 | 1011.2 |
| 20260507170546 | 20 | 310 | 1.6 | 4.8 | 0.00 | 0.00 | 0.00 | 51 | 1011.3 |
| 20260507170045 | 20 | 311 | 0.0 | 3.2 | 0.00 | 0.00 | 0.00 | 52 | 1011.1 |
| 20260507165542 | 20 | 311 | 1.6 | 3.2 | 0.00 | 0.00 | 0.00 | 49 | 1011.4 |
| 20260507165043 | 20 | 311 | 3.2 | 9.7 | 0.00 | 0.00 | 0.00 | 48 | 1011.4 |
| 20260507164545 | 20 | 315 | 1.6 | 9.7 | 0.00 | 0.00 | 0.00 | 48 | 1011.3 |
| 20260507164044 | 21 | 295 | 1.6 | 4.8 | 0.00 | 0.00 | 0.00 | 48 | 1011.5 |
| 20260507163045 | 20 | 307 | 0.0 | 3.2 | 0.00 | 0.00 | 0.00 | 51 | 1011.4 |
| 20260507162544 | 20 | 313 | 0.0 | 4.8 | 0.00 | 0.00 | 0.00 | 49 | 1011.4 |
| 20260507162043 | 20 | 313 | 1.6 | 4.8 | 0.00 | 0.00 | 0.00 | 52 | 1011.3 |
| 20260507161548 | 20 | 316 | 1.6 | 3.2 | 0.00 | 0.00 | 0.00 | 52 | 1011.5 |
| 20260507160534 | 20 | 316 | 0.0 | 3.2 | 0.00 | 0.00 | 0.00 | 51 | 1011.5 |
| 20260507155532 | 20 | 317 | 0.0 | 0.0 | 0.00 | 0.00 | 0.00 | 51 | 1011.5 |
| 20260507155034 | 21 | 317 | 0.0 | 3.2 | 0.00 | 0.00 | 0.00 | 49 | 1011.5 |
| 20260507154540 | 21 | 317 | 0.0 | 3.2 | 0.00 | 0.00 | 0.00 | 51 | 1011.2 |
| 20260507154032 | 21 | 320 | 0.0 | 11.3 | 0.00 | 0.00 | 0.00 | 47 | 1011.5 |
| 20260507153521 | 21 | 317 | 0.0 | 11.3 | 0.00 | 0.00 | 0.00 | 46 | 1011.5 |
| 20260507152524 | 21 | 335 | 0.0 | 3.2 | 0.00 | 0.00 | 0.00 | 43 | 1011.6 |
| 20260507152007 | 21 | 332 | 0.0 | 0.0 | 0.00 | 0.00 | 0.00 | 46 | 1011.7 |
| 20260507151511 | 21 | 332 | 0.0 | 3.2 | 0.00 | 0.00 | 0.00 | 43 | 1011.5 |
| 20260507151008 | 21 | 331 | 0.0 | 3.2 | 0.00 | 0.00 | 0.00 | 47 | 1011.5 |
| 20260507150509 | 21 | 49 | 1.6 | 11.3 | 0.00 | 0.00 | 0.00 | 46 | 1011.5 |
| 20260507150011 | 21 | 325 | 3.2 | 11.3 | 0.00 | 0.00 | 0.00 | 45 | 1011.5 |
| 20260507145508 | 21 | 323 | 4.8 | 11.3 | 0.00 | 0.00 | 0.00 | 48 | 1011.6 |
| 20260507145009 | 21 | 307 | 4.8 | 11.3 | 0.00 | 0.00 | 0.00 | 46 | 1011.7 |
| 20260507144510 | 21 | 326 | 3.2 | 9.7 | 0.00 | 0.00 | 0.00 | 47 | 1011.8 |
| 20260507144010 | 21 | 323 | 4.8 | 11.3 | 0.00 | 0.00 | 0.00 | 46 | 1011.7 |
| 20260507143509 | 22 | 314 | 8.0 | 11.3 | 0.00 | 0.00 | 0.00 | 44 | 1011.8 |
| 20260507143011 | 21 | 348 | 1.6 | 4.8 | 0.00 | 0.00 | 0.00 | 50 | 1011.9 |
| 20260507142008 | 21 | 6 | 0.0 | 6.4 | 0.00 | 0.00 | 0.00 | 46 | 1012.1 |
| 20260507141501 | 21 | 316 | 3.2 | 6.4 | 0.00 | 0.00 | 0.00 | 46 | 1012.0 |
| 20260507141001 | 22 | 304 | 0.0 | 4.8 | 0.00 | 0.00 | 0.00 | 47 | 1012.0 |
| 20260507140459 | 22 | 333 | 0.0 | 1.6 | 0.00 | 0.00 | 0.00 | 45 | 1012.0 |
| 20260507140000 | 22 | 328 | 0.0 | 1.6 | 0.00 | 0.00 | 0.00 | 46 | 1012.1 |
| 20260507135500 | 22 | 327 | 0.0 | 1.6 | 0.00 | 0.00 | 0.00 | 44 | 1012.1 |
| 20260507135000 | 22 | 327 | 0.0 | 1.6 | 0.00 | 0.00 | 0.00 | 44 | 1012.4 |
| 20260507134459 | 22 | 330 | 0.0 | 1.6 | 0.00 | 0.00 | 0.00 | 43 | 1012.2 |
| 20260507134000 | 22 | 320 | 1.6 | 3.2 | 0.00 | 0.00 | 0.00 | 45 | 1012.2 |
| 20260507133001 | 22 | 322 | 0.0 | 9.7 | 0.00 | 0.00 | 0.00 | 47 | 1012.3 |
| 20260507132501 | 22 | 320 | 1.6 | 9.7 | 0.00 | 0.00 | 0.00 | 46 | 1012.5 |
| 20260507132003 | 21 | 308 | 0.0 | 6.4 | 0.00 | 0.00 | 0.00 | 48 | 1012.5 |
| 20260507131501 | 21 | 315 | 1.6 | 9.7 | 0.00 | 0.00 | 0.00 | 45 | 1012.4 |
| 20260507131001 | 21 | 330 | 3.2 | 9.7 | 0.00 | 0.00 | 0.00 | 44 | 1012.4 |
| 20260507130501 | 22 | 326 | 1.6 | 9.7 | 0.00 | 0.00 | 0.00 | 47 | 1012.6 |
| 20260507125452 | 21 | 354 | 3.2 | 11.3 | 0.00 | 0.00 | 0.00 | 45 | 1012.6 |
| 20260507124949 | 22 | 315 | 8.0 | 11.3 | 0.00 | 0.00 | 0.00 | 42 | 1012.6 |
| 20260507124449 | 22 | 109 | 0.0 | 3.2 | 0.00 | 0.00 | 0.00 | 45 | 1012.6 |
| 20260507123948 | 21 | 290 | 0.0 | 3.2 | 0.00 | 0.00 | 0.00 | 44 | 1012.5 |
| 20260507123449 | 21 | 319 | 0.0 | 6.4 | 0.00 | 0.00 | 0.00 | 45 | 1012.6 |
| 20260507122950 | 21 | 319 | 0.0 | 6.4 | 0.00 | 0.00 | 0.00 | 49 | 1012.6 |
| 20260507122451 | 22 | 7 | 1.6 | 1.6 | 0.00 | 0.00 | 0.00 | 46 | 1012.7 |
| 20260507121948 | 21 | 6 | 0.0 | 4.8 | 0.00 | 0.00 | 0.00 | 46 | 1012.6 |
| 20260507121449 | 21 | 16 | 0.0 | 6.4 | 0.00 | 0.00 | 0.00 | 49 | 1012.9 |
| 20260507120947 | 21 | 274 | 1.6 | 6.4 | 0.00 | 0.00 | 0.00 | 48 | 1012.9 |
| 20260507120448 | 21 | 315 | 3.2 | 6.4 | 0.00 | 0.00 | 0.00 | 46 | 1012.8 |
| 20260507115949 | 20 | 336 | 3.2 | 6.4 | 0.00 | 0.00 | 0.00 | 49 | 1012.9 |
| 20260507115449 | 21 | 328 | 1.6 | 6.4 | 0.00 | 0.00 | 0.00 | 46 | 1012.8 |
| 20260507114951 | 20 | 310 | 0.0 | 11.3 | 0.00 | 0.00 | 0.00 | 52 | 1012.8 |
| 20260507114450 | 20 | 308 | 6.4 | 11.3 | 0.00 | 0.00 | 0.00 | 48 | 1013.0 |
| 20260507113950 | 20 | 311 | 4.8 | 9.7 | 0.00 | 0.00 | 0.00 | 49 | 1012.9 |
| 20260507113448 | 21 | 316 | 4.8 | 9.7 | 0.00 | 0.00 | 0.00 | 48 | 1013.1 |
| 20260507112948 | 20 | 117 | 0.0 | 4.8 | 0.00 | 0.00 | 0.00 | 55 | 1013.1 |
| 20260507112448 | 20 | 118 | 1.6 | 4.8 | 0.00 | 0.00 | 0.00 | 50 | 1013.1 |
| 20260507111949 | 20 | 21 | 0.0 | 11.3 | 0.00 | 0.00 | 0.00 | 53 | 1012.9 |
| 20260507111447 | 20 | 322 | 6.4 | 14.5 | 0.00 | 0.00 | 0.00 | 50 | 1013.1 |
| 20260507110952 | 20 | 314 | 3.2 | 14.5 | 0.00 | 0.00 | 0.00 | 50 | 1013.4 |
| 20260507110450 | 20 | 101 | 1.6 | 12.9 | 0.00 | 0.00 | 0.00 | 54 | 1013.2 |
| 20260507105950 | 20 | 312 | 3.2 | 11.3 | 0.00 | 0.00 | 0.00 | 53 | 1013.4 |
| 20260507105447 | 20 | 316 | 4.8 | 11.3 | 0.00 | 0.00 | 0.00 | 51 | 1013.3 |
| 20260507104447 | 20 | 313 | 3.2 | 12.9 | 0.00 | 0.00 | 0.00 | 50 | 1013.5 |
| 20260507103949 | 20 | 313 | 3.2 | 14.5 | 0.00 | 0.00 | 0.00 | 53 | 1013.3 |
| 20260507103449 | 19 | 322 | 1.6 | 16.1 | 0.00 | 0.00 | 0.00 | 55 | 1013.5 |
| 20260507102949 | 18 | 318 | 6.4 | 16.1 | 0.00 | 0.00 | 0.00 | 54 | 1013.7 |
| 20260507102449 | 19 | 312 | 4.8 | 11.3 | 0.00 | 0.00 | 0.00 | 55 | 1013.6 |
| 20260507101937 | 20 | 339 | 0.0 | 12.9 | 0.00 | 0.00 | 0.00 | 54 | 1013.7 |
| 20260507101436 | 20 | 325 | 4.8 | 12.9 | 0.00 | 0.00 | 0.00 | 52 | 1013.6 |
| 20260507100936 | 19 | 353 | 1.6 | 14.5 | 0.00 | 0.00 | 0.00 | 59 | 1013.7 |
| 20260507100424 | 18 | 320 | 6.4 | 16.1 | 0.00 | 0.00 | 0.00 | 55 | 1013.8 |
| 20260507095924 | 19 | 316 | 11.3 | 16.1 | 0.00 | 0.00 | 0.00 | 53 | 1013.9 |
| 20260507095423 | 19 | 313 | 1.6 | 12.9 | 0.00 | 0.00 | 0.00 | 51 | 1013.5 |
| 20260507094913 | 19 | 334 | 6.4 | 12.9 | 0.00 | 0.00 | 0.00 | 53 | 1013.5 |
| 20260507094413 | 19 | 310 | 4.8 | 12.9 | 0.00 | 0.00 | 0.00 | 53 | 1013.6 |
| 20260507093914 | 20 | 313 | 6.4 | 12.9 | 0.00 | 0.00 | 0.00 | 52 | 1013.6 |
| 20260507093413 | 20 | 319 | 4.8 | 6.4 | 0.00 | 0.00 | 0.00 | 52 | 1013.7 |
| 20260507092912 | 20 | 331 | 0.0 | 6.4 | 0.00 | 0.00 | 0.00 | 53 | 1013.6 |
| 20260507092413 | 19 | 255 | 0.0 | 9.7 | 0.00 | 0.00 | 0.00 | 53 | 1013.6 |